Regional Weather Roundup
Issued by NWS Nashville, TN

Home | Current Version | Previous Version | Text Only | Print | Product List | Glossary On
Versions: 1 2 3 4 5 6 7 8 9 10 11 12 13 14 15 16 17 18 19 20 21 22 23 24 25 26 27 28
000
ASUS44 KOHX 302310
RWROHX
MIDDLE TENNESSEE HOURLY WEATHER ROUNDUP
NATIONAL WEATHER SERVICE NASHVILLE TN
600 PM CDT MON MAY 30 2016

NOTE: "FAIR" INDICATES FEW OR NO CLOUDS BELOW 12,000 FEET WITH
NO SIGNIFICANT WEATHER AND/OR OBSTRUCTIONS TO VISIBILITY.

* THESE REPORTS ARE NOT UNDER NWS QUALITY CONTROL AND MAY NOT
  REPORT WEATHER SUCH AS PRECIPITATION AND FOG.


TNZ005>011-023>034-057-059-062>066-078-080-310000
...NORTHERN MIDDLE TENNESSEE...

CITY           SKY/WX    TMP DP  RH WIND       PRES   REMARKS
CLARKSVILLE    SUNNY     85  59  41 N5        29.97F
CROSSVILLE     SUNNY     80  56  43 N8        30.02F
DICKSON        SUNNY     82  59  44 NE7       29.98F
NASHVILLE      MOSUNNY   87  54  32 N9        29.96F
SMYRNA         SUNNY     89  57  33 N9        29.96F
SPARTA         SUNNY     84  61  45 N5        29.97F
$$
TNZ056-058-060-061-075>077-079-093>097-310000
...SOUTHERN MIDDLE TENNESSEE...

CITY           SKY/WX    TMP DP  RH WIND       PRES   REMARKS
COLUMBIA       SUNNY     88  61  40 N6        29.95F
FAYETTEVILLE   MOSUNNY   86  57  37 N7        29.96S
LEWISBURG      MOSUNNY   87  58  37 NE10      29.95F
MCMINNVILLE    MOSUNNY   84  61  45 N10       29.98S
SHELBYVILLE    SUNNY     88  57  35 N10       29.97F
TULLAHOMA      SUNNY     82  55  39 N9        29.98F
WINCHESTER     SUNNY     84  57  39 N10       29.96F
$$


...KEY TO REMARKS...
VSB - VISIBILITY IN MILES
WCI - WIND CHILL INDEX
HX  - HEAT INDEX





USA.gov is the U.S. government's official web portal to all federal, state and local government web resources and services.